Hourly Data Report for November 05, 2019

All times are specified in Local Standard Time (LST). Add 1 hour to adjust for Daylight Saving Time where and when it is observed.

SAINT JOHN A
NEW BRUNSWICK
Current Station Operator: NAVCAN

45°18'58.000" N
65°53'24.000" W
108.80 m
8104901
71609
YSJ

Download Data

Hourly Data (November 2019)
Hourly Data Report for November 5, 2019
TIME Temp Definition
°C
Dew Point Definition
°C
Rel Hum Definition
%
Wind Dir Definition
10's deg

Wind Spd Definition
km/h
Visibility Definition
km
Stn Press Definition
kPa
Hmdx Definition


Wind Chill Definition


Weather Definition


00:00 -0.3 -1.0 95 20 4 24.1 101.55   -2 LegendNANA
01:00 0.6 -0.5 92 17 5 24.1 101.52     LegendNANA
02:00 3.0 -0.1 80 20 4 24.1 101.53     Mostly Cloudy
03:00 4.6 1.1 78 20 6 24.1 101.52     LegendNANA
04:00 5.5 2.2 79 18 8 24.1 101.51     LegendNANA
05:00 6.7 3.7 81 17 14 24.1 101.51     Cloudy
06:00 6.9 4.5 85 17 18 24.1 101.49     LegendNANA
07:00 7.1 4.8 85 17 20 24.1 101.50     LegendNANA
08:00 7.6 5.0 84 18 19 24.1 101.54     Mostly Cloudy
09:00 8.5 5.2 79 17 23 24.1 101.53     LegendNANA
10:00 9.3 5.2 76 18 29 24.1 101.46     LegendNANA
11:00 10.2 5.1 71 18 31 24.1 101.45     Cloudy
12:00 10.9 5.3 68 18 31 24.1 101.36     LegendNANA
13:00 10.8 4.7 66 18 25 24.1 101.27     LegendNANA
14:00 10.9 5.1 67 18 24 24.1 101.20     Cloudy
15:00 11.2 5.9 70 18 18 24.1 101.15     LegendNANA
16:00 11.5 5.3 66 17 19 24.1 101.06     LegendNANA
17:00 11.0 5.8 71 16 19 24.1 100.98     Cloudy
18:00 10.4 7.8 84 16 18 16.1 100.90     Rain
19:00 10.1 8.9 92 19 10 16.1 100.90     Rain
20:00 10.2 9.6 96 15 13 12.9 100.75     Rain
21:00 10.4 10.0 97 15 26 4.8 100.57     Rain,Fog
22:00 11.3 10.9 97 25 19 4.8 100.48     Moderate Rain,Fog
23:00 11.9 11.4 97 17 17 4.8 100.31     Rain,Fog

Notes on Data Quality.

Legend

  • E = Estimated
  • M = Missing
  • NA = Not Available
Date modified: